| time (UTC) | temp C | wind direction | speed KPH | gust KPH | rain 1hr cm | rain 24hr cm | rain mn cm | humidity % | barometer mb |
| 20260505200924 | 20 | 128 | 3.2 | 11.3 | 0.00 | 0.00 | 0.00 | 37 | 1013.0 |
| 20260505200424 | 20 | 85 | 1.6 | 6.4 | 0.00 | 0.00 | 0.00 | 37 | 1013.1 |
| 20260505195922 | 20 | 139 | 1.6 | 6.4 | 0.00 | 0.00 | 0.00 | 37 | 1013.0 |
| 20260505195422 | 20 | 11 | 1.6 | 6.4 | 0.00 | 0.00 | 0.00 | 37 | 1013.0 |
| 20260505194923 | 20 | 31 | 1.6 | 6.4 | 0.00 | 0.00 | 0.00 | 36 | 1013.0 |
| 20260505194428 | 20 | 81 | 3.2 | 6.4 | 0.00 | 0.00 | 0.00 | 38 | 1012.8 |
| 20260505194424 | 20 | 71 | 1.6 | 6.4 | 0.00 | 0.00 | 0.00 | 36 | 1012.8 |
| 20260505194035 | 20 | 72 | 1.6 | 6.4 | 0.00 | 0.00 | 0.00 | 37 | 1013.0 |
| 20260505193423 | 20 | 117 | 3.2 | 6.4 | 0.00 | 0.00 | 0.00 | 39 | 1012.8 |
| 20260505192424 | 20 | 322 | 1.6 | 4.8 | 0.00 | 0.00 | 0.00 | 38 | 1013.0 |
| 20260505191922 | 20 | 55 | 1.6 | 4.8 | 0.00 | 0.00 | 0.00 | 38 | 1013.0 |
| 20260505191426 | 19 | 106 | 3.2 | 8.0 | 0.00 | 0.00 | 0.00 | 38 | 1013.0 |
| 20260505191422 | 19 | 76 | 1.6 | 8.0 | 0.00 | 0.00 | 0.00 | 39 | 1013.0 |
| 20260505190423 | 19 | 325 | 1.6 | 4.8 | 0.00 | 0.00 | 0.00 | 39 | 1013.0 |
| 20260505185923 | 19 | 351 | 3.2 | 6.4 | 0.00 | 0.00 | 0.00 | 40 | 1013.0 |
| 20260505185423 | 19 | 65 | 3.2 | 6.4 | 0.00 | 0.00 | 0.00 | 39 | 1013.0 |
| 20260505184928 | 18 | 11 | 3.2 | 8.0 | 0.00 | 0.00 | 0.00 | 40 | 1013.2 |
| 20260505184923 | 18 | 38 | 3.2 | 8.0 | 0.00 | 0.00 | 0.00 | 40 | 1013.1 |
| 20260505183923 | 18 | 96 | 3.2 | 8.0 | 0.00 | 0.00 | 0.00 | 39 | 1013.2 |
| 20260505183421 | 18 | 30 | 1.6 | 4.8 | 0.00 | 0.00 | 0.00 | 41 | 1013.2 |
| 20260505182920 | 18 | 9 | 1.6 | 6.4 | 0.00 | 0.00 | 0.00 | 40 | 1013.4 |
| 20260505182421 | 18 | 63 | 3.2 | 9.7 | 0.00 | 0.00 | 0.00 | 40 | 1013.6 |
| 20260505181920 | 18 | 13 | 3.2 | 9.7 | 0.00 | 0.00 | 0.00 | 40 | 1013.7 |
| 20260505181422 | 18 | 81 | 3.2 | 8.0 | 0.00 | 0.00 | 0.00 | 41 | 1013.6 |
| 20260505180927 | 18 | 333 | 3.2 | 8.0 | 0.00 | 0.00 | 0.00 | 42 | 1013.6 |
| 20260505180920 | 18 | 355 | 1.6 | 8.0 | 0.00 | 0.00 | 0.00 | 42 | 1013.5 |
| 20260505180422 | 17 | 0 | 3.2 | 8.0 | 0.00 | 0.00 | 0.00 | 42 | 1013.5 |
| 20260505175921 | 17 | 30 | 3.2 | 8.0 | 0.00 | 0.00 | 0.00 | 42 | 1013.6 |
| 20260505174921 | 18 | 331 | 3.2 | 8.0 | 0.00 | 0.00 | 0.00 | 41 | 1013.6 |
| 20260505174426 | 18 | 346 | 3.2 | 12.9 | 0.00 | 0.00 | 0.00 | 41 | 1013.8 |
| 20260505174421 | 18 | 338 | 3.2 | 9.7 | 0.00 | 0.00 | 0.00 | 41 | 1013.6 |
| 20260505174032 | 18 | 338 | 3.2 | 12.9 | 0.00 | 0.00 | 0.00 | 43 | 1013.7 |
| 20260505172920 | 17 | 21 | 3.2 | 9.7 | 0.00 | 0.00 | 0.00 | 43 | 1013.8 |
| 20260505172423 | 17 | 348 | 1.6 | 6.4 | 0.00 | 0.00 | 0.00 | 44 | 1013.8 |
| 20260505172419 | 17 | 61 | 3.2 | 9.7 | 0.00 | 0.00 | 0.00 | 42 | 1013.8 |
| 20260505171418 | 17 | 37 | 1.6 | 6.4 | 0.00 | 0.00 | 0.00 | 43 | 1013.7 |
| 20260505170918 | 17 | 51 | 3.2 | 6.4 | 0.00 | 0.00 | 0.00 | 42 | 1013.6 |
| 20260505170423 | 17 | 61 | 3.2 | 14.5 | 0.00 | 0.00 | 0.00 | 43 | 1013.8 |
| 20260505170418 | 17 | 331 | 3.2 | 14.5 | 0.00 | 0.00 | 0.00 | 43 | 1013.8 |
| 20260505165418 | 17 | 71 | 1.6 | 6.4 | 0.00 | 0.00 | 0.00 | 43 | 1013.8 |
| 20260505164917 | 16 | 56 | 1.6 | 8.0 | 0.00 | 0.00 | 0.00 | 43 | 1013.7 |
| 20260505164417 | 16 | 312 | 3.2 | 8.0 | 0.00 | 0.00 | 0.00 | 44 | 1013.7 |
| 20260505163917 | 16 | 64 | 1.6 | 8.0 | 0.00 | 0.00 | 0.00 | 43 | 1013.7 |
| 20260505163417 | 16 | 349 | 1.6 | 4.8 | 0.00 | 0.00 | 0.00 | 43 | 1013.8 |
| 20260505162916 | 16 | 327 | 1.6 | 6.4 | 0.00 | 0.00 | 0.00 | 44 | 1013.7 |
| 20260505162422 | 15 | 344 | 3.2 | 6.4 | 0.00 | 0.00 | 0.00 | 45 | 1014.0 |
| 20260505162415 | 16 | 15 | 3.2 | 8.0 | 0.00 | 0.00 | 0.00 | 44 | 1013.8 |
| 20260505161915 | 16 | 72 | 3.2 | 8.0 | 0.00 | 0.00 | 0.00 | 44 | 1014.0 |
| 20260505161414 | 15 | 49 | 3.2 | 6.4 | 0.00 | 0.00 | 0.00 | 44 | 1014.1 |
| 20260505160415 | 15 | 350 | 1.6 | 6.4 | 0.00 | 0.00 | 0.00 | 44 | 1014.0 |
| 20260505160411 | 15 | 331 | 3.2 | 6.4 | 0.00 | 0.00 | 0.00 | 43 | 1014.0 |
| 20260505152910 | 15 | 355 | 3.2 | 8.0 | 0.00 | 0.00 | 0.00 | 46 | 1013.3 |
| 20260505152411 | 14 | 355 | 3.2 | 8.0 | 0.00 | 0.00 | 0.00 | 46 | 1013.2 |
| 20260505151908 | 14 | 5 | 3.2 | 8.0 | 0.00 | 0.00 | 0.00 | 46 | 1013.1 |
| 20260505151409 | 14 | 348 | 3.2 | 8.0 | 0.00 | 0.00 | 0.00 | 46 | 1013.1 |
| 20260505150907 | 14 | 9 | 3.2 | 8.0 | 0.00 | 0.00 | 0.00 | 48 | 1013.1 |
| 20260505150407 | 13 | 348 | 3.2 | 9.7 | 0.00 | 0.00 | 0.00 | 48 | 1013.0 |
| 20260505140404 | 12 | 334 | 4.8 | 9.7 | 0.00 | 0.00 | 0.00 | 51 | 1013.0 |
| 20260505124854 | 12 | 18 | 1.6 | 6.4 | 0.00 | 0.00 | 0.00 | 56 | 1011.6 |
| 20260505124352 | 12 | 340 | 1.6 | 4.8 | 0.00 | 0.00 | 0.00 | 56 | 1011.6 |
| 20260505123853 | 12 | 327 | 1.6 | 4.8 | 0.00 | 0.00 | 0.00 | 56 | 1011.4 |
| 20260505123352 | 12 | 355 | 1.6 | 6.4 | 0.00 | 0.00 | 0.00 | 56 | 1011.3 |
| 20260505122848 | 12 | 329 | 1.6 | 6.4 | 0.00 | 0.00 | 0.00 | 56 | 1011.0 |
| 20260505122347 | 12 | 5 | 1.6 | 6.4 | 0.00 | 0.00 | 0.00 | 56 | 1010.9 |
| 20260505121847 | 12 | 12 | 1.6 | 6.4 | 0.00 | 0.00 | 0.00 | 57 | 1010.8 |
| 20260505121843 | 12 | 340 | 1.6 | 6.4 | 0.00 | 0.00 | 0.00 | 58 | 1010.8 |
| 20260505120842 | 12 | 302 | 1.6 | 4.8 | 0.00 | 0.00 | 0.00 | 59 | 1010.7 |
| 20260505120342 | 13 | 0 | 1.6 | 4.8 | 0.00 | 0.00 | 0.00 | 58 | 1010.8 |
| 20260505115840 | 13 | 0 | 1.6 | 4.8 | 0.00 | 0.00 | 0.00 | 58 | 1010.8 |
| 20260505115340 | 13 | 284 | 1.6 | 4.8 | 0.00 | 0.00 | 0.00 | 58 | 1010.8 |
| 20260505114840 | 13 | 340 | 1.6 | 6.4 | 0.00 | 0.00 | 0.00 | 58 | 1010.7 |
| 20260505114340 | 13 | 11 | 1.6 | 6.4 | 0.00 | 0.00 | 0.00 | 58 | 1010.7 |
| 20260505113838 | 13 | 13 | 1.6 | 6.4 | 0.00 | 0.00 | 0.00 | 58 | 1010.6 |
| 20260505113336 | 13 | 351 | 1.6 | 6.4 | 0.00 | 0.00 | 0.00 | 57 | 1010.5 |
| 20260505112836 | 13 | 55 | 3.2 | 8.0 | 0.00 | 0.00 | 0.00 | 57 | 1010.5 |
| 20260505112338 | 13 | 61 | 3.2 | 8.0 | 0.00 | 0.00 | 0.00 | 56 | 1010.2 |
| 20260505111836 | 14 | 0 | 3.2 | 6.4 | 0.00 | 0.00 | 0.00 | 56 | 1010.4 |
| 20260505111336 | 14 | 333 | 4.8 | 8.0 | 0.00 | 0.00 | 0.00 | 55 | 1010.5 |
| 20260505110837 | 14 | 327 | 4.8 | 9.7 | 0.00 | 0.00 | 0.00 | 54 | 1010.4 |
| 20260505110338 | 15 | 48 | 4.8 | 9.7 | 0.00 | 0.00 | 0.00 | 53 | 1010.3 |
| 20260505101833 | 18 | 346 | 6.4 | 14.5 | 0.00 | 0.00 | 0.00 | 31 | 1009.7 |
| 20260505101331 | 19 | 342 | 4.8 | 12.9 | 0.00 | 0.00 | 0.00 | 29 | 1009.7 |
| 20260505100832 | 19 | 332 | 4.8 | 8.0 | 0.00 | 0.00 | 0.00 | 28 | 1009.6 |
| 20260505100332 | 20 | 329 | 4.8 | 8.0 | 0.00 | 0.00 | 0.00 | 28 | 1009.4 |
| 20260505095831 | 19 | 320 | 6.4 | 19.3 | 0.00 | 0.00 | 0.00 | 27 | 1009.1 |
| 20260505095336 | 19 | 315 | 4.8 | 11.3 | 0.00 | 0.00 | 0.00 | 28 | 1008.8 |
| 20260505095330 | 19 | 328 | 6.4 | 19.3 | 0.00 | 0.00 | 0.00 | 28 | 1009.0 |
| 20260505094831 | 18 | 288 | 6.4 | 12.9 | 0.00 | 0.00 | 0.00 | 29 | 1008.8 |
| 20260505093830 | 19 | 217 | 3.2 | 12.9 | 0.00 | 0.00 | 0.00 | 28 | 1008.1 |
| 20260505093335 | 19 | 256 | 3.2 | 9.7 | 0.00 | 0.00 | 0.00 | 28 | 1007.9 |
| 20260505093330 | 19 | 250 | 3.2 | 12.9 | 0.00 | 0.00 | 0.00 | 28 | 1008.0 |
| 20260505092335 | 19 | 225 | 3.2 | 9.7 | 0.00 | 0.00 | 0.00 | 27 | 1007.7 |
| 20260505092330 | 19 | 226 | 3.2 | 9.7 | 0.00 | 0.00 | 0.00 | 27 | 1007.8 |
| 20260505091335 | 19 | 214 | 3.2 | 11.3 | 0.00 | 0.00 | 0.00 | 27 | 1007.9 |
| 20260505091330 | 19 | 189 | 3.2 | 9.7 | 0.00 | 0.00 | 0.00 | 27 | 1007.9 |
| 20260505090828 | 19 | 222 | 3.2 | 11.3 | 0.00 | 0.00 | 0.00 | 27 | 1007.9 |
| 20260505085834 | 19 | 252 | 3.2 | 9.7 | 0.00 | 0.00 | 0.00 | 27 | 1007.9 |
| 20260505085828 | 19 | 284 | 3.2 | 6.4 | 0.00 | 0.00 | 0.00 | 27 | 1007.9 |
| 20260505084828 | 19 | 256 | 3.2 | 9.7 | 0.00 | 0.00 | 0.00 | 27 | 1007.8 |
| 20260505084328 | 19 | 225 | 3.2 | 9.7 | 0.00 | 0.00 | 0.00 | 27 | 1007.8 |
| 20260505083833 | 20 | 228 | 3.2 | 6.4 | 0.00 | 0.00 | 0.00 | 27 | 1007.7 |
| 20260505083828 | 20 | 223 | 3.2 | 9.7 | 0.00 | 0.00 | 0.00 | 27 | 1007.7 |
| 20260505083441 | 20 | 263 | 3.2 | 8.0 | 0.00 | 0.00 | 0.00 | 27 | 1007.7 |
| 20260505082327 | 20 | 221 | 3.2 | 11.3 | 0.00 | 0.00 | 0.00 | 26 | 1007.6 |
| 20260505081832 | 20 | 252 | 4.8 | 9.7 | 0.00 | 0.00 | 0.00 | 26 | 1007.6 |
| 20260505081826 | 20 | 267 | 4.8 | 11.3 | 0.00 | 0.00 | 0.00 | 26 | 1007.6 |
| 20260505080827 | 20 | 234 | 4.8 | 11.3 | 0.00 | 0.00 | 0.00 | 25 | 1007.7 |
| 20260505080330 | 21 | 247 | 4.8 | 11.3 | 0.00 | 0.00 | 0.00 | 25 | 1007.8 |
| 20260505080326 | 20 | 259 | 4.8 | 11.3 | 0.00 | 0.00 | 0.00 | 25 | 1007.7 |
| 20260505075331 | 21 | 248 | 3.2 | 11.3 | 0.00 | 0.00 | 0.00 | 25 | 1007.8 |
| 20260505075327 | 21 | 275 | 3.2 | 11.3 | 0.00 | 0.00 | 0.00 | 25 | 1007.8 |
| 20260505074326 | 21 | 259 | 3.2 | 11.3 | 0.00 | 0.00 | 0.00 | 25 | 1007.9 |
| 20260505073826 | 20 | 209 | 3.2 | 4.8 | 0.00 | 0.00 | 0.00 | 25 | 1007.9 |
| 20260505073331 | 20 | 262 | 3.2 | 6.4 | 0.00 | 0.00 | 0.00 | 25 | 1007.8 |
| 20260505073325 | 20 | 236 | 3.2 | 6.4 | 0.00 | 0.00 | 0.00 | 25 | 1007.9 |
| 20260505072325 | 20 | 263 | 3.2 | 9.7 | 0.00 | 0.00 | 0.00 | 25 | 1007.9 |
| 20260505071827 | 20 | 252 | 3.2 | 9.7 | 0.00 | 0.00 | 0.00 | 25 | 1007.9 |
| 20260505071325 | 20 | 182 | 1.6 | 6.4 | 0.00 | 0.00 | 0.00 | 25 | 1008.0 |
| 20260505070825 | 20 | 273 | 1.6 | 4.8 | 0.00 | 0.00 | 0.00 | 25 | 1008.0 |
| 20260505070330 | 21 | 252 | 1.6 | 4.8 | 0.00 | 0.00 | 0.00 | 25 | 1008.0 |
| 20260505070325 | 21 | 215 | 1.6 | 4.8 | 0.00 | 0.00 | 0.00 | 25 | 1007.9 |
| 20260505065942 | 21 | 194 | 1.6 | 4.8 | 0.00 | 0.00 | 0.00 | 25 | 1008.1 |
| 20260505065938 | 21 | 225 | 1.6 | 4.8 | 0.00 | 0.00 | 0.00 | 25 | 1008.0 |
| 20260505064326 | 21 | 251 | 1.6 | 4.8 | 0.00 | 0.00 | 0.00 | 24 | 1008.1 |
| 20260505063826 | 21 | 272 | 1.6 | 4.8 | 0.00 | 0.00 | 0.00 | 24 | 1008.1 |
| 20260505063324 | 21 | 196 | 1.6 | 4.8 | 0.00 | 0.00 | 0.00 | 24 | 1008.0 |
| 20260505062825 | 21 | 315 | 1.6 | 4.8 | 0.00 | 0.00 | 0.00 | 23 | 1008.0 |
| 20260505062331 | 22 | 253 | 3.2 | 9.7 | 0.00 | 0.00 | 0.00 | 23 | 1008.1 |
| 20260505062323 | 21 | 217 | 3.2 | 6.4 | 0.00 | 0.00 | 0.00 | 23 | 1008.0 |
| 20260505061824 | 22 | 249 | 3.2 | 8.0 | 0.00 | 0.00 | 0.00 | 24 | 1008.0 |
| 20260505060830 | 22 | 281 | 3.2 | 11.3 | 0.00 | 0.00 | 0.00 | 23 | 1008.0 |
| 20260505060824 | 22 | 74 | 3.2 | 11.3 | 0.00 | 0.00 | 0.00 | 23 | 1008.1 |
| 20260505055824 | 22 | 248 | 3.2 | 6.4 | 0.00 | 0.00 | 0.00 | 23 | 1008.1 |
| 20260505055325 | 22 | 236 | 3.2 | 9.7 | 0.00 | 0.00 | 0.00 | 24 | 1008.1 |
| 20260505054830 | 22 | 232 | 3.2 | 8.0 | 0.00 | 0.00 | 0.00 | 23 | 1008.1 |
| 20260505054826 | 22 | 277 | 3.2 | 9.7 | 0.00 | 0.00 | 0.00 | 23 | 1008.1 |
| 20260505053824 | 22 | 226 | 3.2 | 9.7 | 0.00 | 0.00 | 0.00 | 24 | 1008.2 |
| 20260505053329 | 22 | 247 | 3.2 | 6.4 | 0.00 | 0.00 | 0.00 | 24 | 1008.2 |
| 20260505053325 | 22 | 232 | 3.2 | 9.7 | 0.00 | 0.00 | 0.00 | 24 | 1008.2 |
| 20260505052935 | 21 | 267 | 3.2 | 8.0 | 0.00 | 0.00 | 0.00 | 24 | 1008.2 |
| 20260505051822 | 21 | 256 | 3.2 | 9.7 | 0.00 | 0.00 | 0.00 | 24 | 1008.2 |
| 20260505051322 | 21 | 229 | 3.2 | 9.7 | 0.00 | 0.00 | 0.00 | 24 | 1008.2 |
| 20260505050823 | 21 | 263 | 3.2 | 6.4 | 0.00 | 0.00 | 0.00 | 24 | 1008.4 |
| 20260505050327 | 21 | 146 | 3.2 | 9.7 | 0.00 | 0.00 | 0.00 | 24 | 1008.4 |
| 20260505050323 | 21 | 230 | 3.2 | 6.4 | 0.00 | 0.00 | 0.00 | 24 | 1008.5 |
| 20260505041319 | 22 | 187 | 3.2 | 12.9 | 0.00 | 0.00 | 0.00 | 24 | 1008.2 |
| 20260505040818 | 22 | 219 | 3.2 | 9.7 | 0.00 | 0.00 | 0.00 | 24 | 1008.2 |
| 20260505040323 | 21 | 292 | 3.2 | 6.4 | 0.00 | 0.00 | 0.00 | 25 | 1008.1 |
| 20260505040318 | 22 | 254 | 3.2 | 8.0 | 0.00 | 0.00 | 0.00 | 24 | 1008.2 |
| 20260505035319 | 21 | 207 | 3.2 | 6.4 | 0.00 | 0.00 | 0.00 | 25 | 1008.1 |
| 20260505034816 | 21 | 152 | 3.2 | 6.4 | 0.00 | 0.00 | 0.00 | 25 | 1008.2 |
| 20260505034315 | 21 | 187 | 3.2 | 6.4 | 0.00 | 0.00 | 0.00 | 25 | 1008.1 |
| 20260505033815 | 22 | 240 | 3.2 | 6.4 | 0.00 | 0.00 | 0.00 | 25 | 1008.2 |
| 20260505033314 | 22 | 198 | 3.2 | 6.4 | 0.00 | 0.00 | 0.00 | 25 | 1008.2 |
| 20260505032812 | 22 | 232 | 3.2 | 8.0 | 0.00 | 0.00 | 0.00 | 24 | 1008.1 |
| 20260505032312 | 22 | 231 | 3.2 | 9.7 | 0.00 | 0.00 | 0.00 | 24 | 1008.1 |
| 20260505031813 | 22 | 252 | 4.8 | 9.7 | 0.00 | 0.00 | 0.00 | 24 | 1008.1 |
| 20260505031312 | 22 | 211 | 4.8 | 9.7 | 0.00 | 0.00 | 0.00 | 24 | 1008.0 |
| 20260505030817 | 22 | 251 | 3.2 | 9.7 | 0.00 | 0.00 | 0.00 | 24 | 1008.0 |
| 20260505030812 | 22 | 202 | 3.2 | 9.7 | 0.00 | 0.00 | 0.00 | 24 | 1008.1 |
| 20260505025810 | 23 | 5 | 3.2 | 9.7 | 0.00 | 0.00 | 0.00 | 23 | 1007.9 |
| 20260505025310 | 23 | 269 | 3.2 | 9.7 | 0.00 | 0.00 | 0.00 | 23 | 1007.9 |
| 20260505024810 | 23 | 227 | 3.2 | 9.7 | 0.00 | 0.00 | 0.00 | 23 | 1007.9 |
| 20260505024312 | 23 | 218 | 1.6 | 8.0 | 0.00 | 0.00 | 0.00 | 23 | 1007.8 |
| 20260505024307 | 23 | 265 | 3.2 | 8.0 | 0.00 | 0.00 | 0.00 | 23 | 1007.8 |
| 20260505023920 | 23 | 194 | 1.6 | 6.4 | 0.00 | 0.00 | 0.00 | 23 | 1007.8 |
| 20260505022810 | 23 | 217 | 1.6 | 4.8 | 0.00 | 0.00 | 0.00 | 22 | 1007.8 |
| 20260505022806 | 23 | 216 | 1.6 | 4.8 | 0.00 | 0.00 | 0.00 | 23 | 1007.8 |
| 20260505022417 | 24 | 218 | 3.2 | 6.4 | 0.00 | 0.00 | 0.00 | 21 | 1007.8 |
| 20260505021305 | 24 | 213 | 3.2 | 6.4 | 0.00 | 0.00 | 0.00 | 21 | 1007.8 |
| 20260505020804 | 24 | 139 | 3.2 | 4.8 | 0.00 | 0.00 | 0.00 | 20 | 1007.7 |
| 20260505020303 | 24 | 212 | 1.6 | 6.4 | 0.00 | 0.00 | 0.00 | 18 | 1007.8 |
| 20260505015805 | 24 | 212 | 3.2 | 8.0 | 0.00 | 0.00 | 0.00 | 16 | 1007.7 |
| 20260505015303 | 25 | 240 | 1.6 | 8.0 | 0.00 | 0.00 | 0.00 | 16 | 1007.7 |
| 20260505014803 | 25 | 232 | 1.6 | 6.4 | 0.00 | 0.00 | 0.00 | 16 | 1007.6 |
| 20260505014304 | 25 | 252 | 3.2 | 8.0 | 0.00 | 0.00 | 0.00 | 15 | 1007.6 |
| 20260505013804 | 25 | 271 | 3.2 | 9.7 | 0.00 | 0.00 | 0.00 | 15 | 1007.6 |
| 20260505013302 | 25 | 261 | 3.2 | 12.9 | 0.00 | 0.00 | 0.00 | 14 | 1007.5 |
| 20260505012802 | 25 | 274 | 3.2 | 12.9 | 0.00 | 0.00 | 0.00 | 15 | 1007.5 |
| 20260505012304 | 26 | 296 | 4.8 | 11.3 | 0.00 | 0.00 | 0.00 | 14 | 1007.4 |
| 20260505011802 | 26 | 215 | 4.8 | 14.5 | 0.00 | 0.00 | 0.00 | 14 | 1007.2 |
| 20260505011302 | 26 | 222 | 6.4 | 14.5 | 0.00 | 0.00 | 0.00 | 14 | 1007.2 |
| 20260505010802 | 26 | 167 | 4.8 | 14.5 | 0.00 | 0.00 | 0.00 | 14 | 1007.4 |
| 20260505010301 | 26 | 293 | 4.8 | 14.5 | 0.00 | 0.00 | 0.00 | 14 | 1007.4 |
| 20260505005802 | 26 | 253 | 4.8 | 14.5 | 0.00 | 0.00 | 0.00 | 14 | 1007.4 |
| 20260505005303 | 26 | 236 | 4.8 | 14.5 | 0.00 | 0.00 | 0.00 | 13 | 1007.5 |
| 20260505004804 | 26 | 205 | 6.4 | 19.3 | 0.00 | 0.00 | 0.00 | 13 | 1007.5 |
| 20260505004306 | 27 | 232 | 8.0 | 17.7 | 0.00 | 0.00 | 0.00 | 13 | 1007.5 |
| 20260505004301 | 26 | 207 | 8.0 | 19.3 | 0.00 | 0.00 | 0.00 | 13 | 1007.6 |
| 20260505003306 | 27 | 255 | 6.4 | 16.1 | 0.00 | 0.00 | 0.00 | 13 | 1007.6 |
| 20260505003302 | 27 | 269 | 8.0 | 17.7 | 0.00 | 0.00 | 0.00 | 13 | 1007.6 |
| 20260505002301 | 27 | 267 | 6.4 | 25.7 | 0.00 | 0.00 | 0.00 | 14 | 1007.6 |
| 20260505001803 | 27 | 252 | 8.0 | 25.7 | 0.00 | 0.00 | 0.00 | 14 | 1007.6 |
| 20260505001303 | 27 | 255 | 8.0 | 14.5 | 0.00 | 0.00 | 0.00 | 14 | 1007.7 |
| 20260505000801 | 27 | 217 | 6.4 | 14.5 | 0.00 | 0.00 | 0.00 | 14 | 1007.7 |
| 20260505000301 | 27 | 277 | 6.4 | 17.7 | 0.00 | 0.00 | 0.00 | 13 | 1007.7 |
| 20260504235801 | 27 | 254 | 8.0 | 17.7 | 0.00 | 0.00 | 0.00 | 13 | 1007.6 |
| 20260504235304 | 27 | 110 | 6.4 | 19.3 | 0.00 | 0.00 | 0.00 | 13 | 1007.7 |
| 20260504234802 | 27 | 238 | 8.0 | 19.3 | 0.00 | 0.00 | 0.00 | 12 | 1007.6 |
| 20260504234302 | 27 | 257 | 8.0 | 17.7 | 0.00 | 0.00 | 0.00 | 13 | 1007.6 |
| 20260504233802 | 27 | 281 | 6.4 | 14.5 | 0.00 | 0.00 | 0.00 | 13 | 1007.6 |
| 20260504233306 | 28 | 242 | 6.4 | 20.9 | 0.00 | 0.00 | 0.00 | 14 | 1007.6 |
| 20260504233302 | 27 | 254 | 6.4 | 19.3 | 0.00 | 0.00 | 0.00 | 13 | 1007.6 |
| 20260504232304 | 28 | 294 | 8.0 | 20.9 | 0.00 | 0.00 | 0.00 | 13 | 1007.5 |
| 20260504231801 | 28 | 330 | 9.7 | 16.1 | 0.00 | 0.00 | 0.00 | 13 | 1007.5 |
| 20260504231302 | 28 | 315 | 8.0 | 14.5 | 0.00 | 0.00 | 0.00 | 13 | 1007.6 |
| 20260504230803 | 28 | 224 | 8.0 | 19.3 | 0.00 | 0.00 | 0.00 | 13 | 1007.6 |
| 20260504230301 | 28 | 294 | 9.7 | 19.3 | 0.00 | 0.00 | 0.00 | 12 | 1007.5 |
| 20260504225802 | 28 | 274 | 9.7 | 22.5 | 0.00 | 0.00 | 0.00 | 13 | 1007.5 |
| 20260504225304 | 28 | 257 | 8.0 | 22.5 | 0.00 | 0.00 | 0.00 | 12 | 1007.5 |
| 20260504225258 | 28 | 278 | 8.0 | 20.9 | 0.00 | 0.00 | 0.00 | 12 | 1007.4 |
| 20260504224911 | 28 | 276 | 8.0 | 17.7 | 0.00 | 0.00 | 0.00 | 12 | 1007.5 |
| 20260504223759 | 28 | 255 | 8.0 | 17.7 | 0.00 | 0.00 | 0.00 | 13 | 1007.4 |
| 20260504223755 | 28 | 230 | 6.4 | 17.7 | 0.00 | 0.00 | 0.00 | 13 | 1007.5 |
| 20260504222758 | 28 | 298 | 8.0 | 17.7 | 0.00 | 0.00 | 0.00 | 18 | 1007.6 |
| 20260504222753 | 28 | 211 | 6.4 | 16.1 | 0.00 | 0.00 | 0.00 | 16 | 1007.4 |
| 20260504221753 | 28 | 259 | 9.7 | 17.7 | 0.00 | 0.00 | 0.00 | 16 | 1007.7 |
| 20260504221250 | 29 | 269 | 8.0 | 24.1 | 0.00 | 0.00 | 0.00 | 16 | 1007.8 |
| 20260504220753 | 28 | 162 | 6.4 | 17.7 | 0.00 | 0.00 | 0.00 | 19 | 1007.8 |
| 20260504220749 | 29 | 292 | 6.4 | 24.1 | 0.00 | 0.00 | 0.00 | 17 | 1007.8 |
| 20260504215749 | 28 | 251 | 6.4 | 20.9 | 0.00 | 0.00 | 0.00 | 18 | 1007.9 |
| 20260504215250 | 29 | 248 | 6.4 | 20.9 | 0.00 | 0.00 | 0.00 | 19 | 1008.0 |
| 20260504214755 | 28 | 269 | 6.4 | 14.5 | 0.00 | 0.00 | 0.00 | 21 | 1008.4 |
| 20260504214749 | 28 | 280 | 4.8 | 16.1 | 0.00 | 0.00 | 0.00 | 21 | 1008.0 |
| 20260504214248 | 28 | 251 | 4.8 | 12.9 | 0.00 | 0.00 | 0.00 | 22 | 1008.2 |
| 20260504213247 | 28 | 219 | 8.0 | 16.1 | 0.00 | 0.00 | 0.00 | 21 | 1008.4 |
| 20260504212745 | 28 | 284 | 8.0 | 27.4 | 0.00 | 0.00 | 0.00 | 21 | 1008.6 |
| 20260504212246 | 28 | 306 | 6.4 | 27.4 | 0.00 | 0.00 | 0.00 | 22 | 1008.7 |
| 20260504211745 | 28 | 238 | 6.4 | 17.7 | 0.00 | 0.00 | 0.00 | 22 | 1008.7 |
| 20260504211243 | 28 | 303 | 4.8 | 12.9 | 0.00 | 0.00 | 0.00 | 21 | 1008.8 |
| 20260504210744 | 28 | 290 | 4.8 | 14.5 | 0.00 | 0.00 | 0.00 | 20 | 1008.8 |
| 20260504210241 | 28 | 262 | 6.4 | 14.5 | 0.00 | 0.00 | 0.00 | 20 | 1009.1 |
| 20260504205747 | 28 | 252 | 6.4 | 16.1 | 0.00 | 0.00 | 0.00 | 19 | 1009.1 |
| 20260504205742 | 28 | 250 | 6.4 | 14.5 | 0.00 | 0.00 | 0.00 | 20 | 1009.1 |
| 20260504205353 | 29 | 295 | 4.8 | 16.1 | 0.00 | 0.00 | 0.00 | 19 | 1009.1 |
| 20260504204241 | 29 | 215 | 6.4 | 14.5 | 0.00 | 0.00 | 0.00 | 19 | 1009.3 |
| 20260504203741 | 29 | 231 | 6.4 | 14.5 | 0.00 | 0.00 | 0.00 | 18 | 1009.4 |
| 20260504203242 | 30 | 290 | 4.8 | 14.5 | 0.00 | 0.00 | 0.00 | 19 | 1009.3 |
| 20260504202741 | 29 | 224 | 6.4 | 17.7 | 0.00 | 0.00 | 0.00 | 18 | 1009.4 |
| 20260504202239 | 29 | 229 | 6.4 | 17.7 | 0.00 | 0.00 | 0.00 | 17 | 1009.4 |
| 20260504201739 | 29 | 292 | 6.4 | 17.7 | 0.00 | 0.00 | 0.00 | 19 | 1009.5 |